Location: Arcones
(41.1182°N, 3.7238°W)
Time: 21:38:42
(UTC+00:00)

Meteor 2-20 - Visible Passes

Search period start: 16 March 2026 00:00
Search period end: 26 March 2026 00:00
Orbit: 939 x 957 km, 82.5° (Epoch: 16 March)

Date Brightness Start Highest point End Pass type
(mag) Time Alt. Az. Time Alt. Az. Time Alt. Az.
16 Mar 7.4 19:36:27 10° NW 19:40:31 19° W 19:44:35 10° SW visible
17 Mar 7.6 05:33:09 10° ESE 05:36:55 17° E 05:40:43 10° NE visible
17 Mar 7.9 19:55:39 10° WNW 19:57:18 11° WNW 19:58:55 10° W visible
18 Mar 7.0 05:48:45 10° SE 05:53:46 27° E 05:58:49 10° NNE visible
19 Mar 6.5 18:42:08 10° NNW 18:47:35 34° W 18:52:59 10° SSW visible
20 Mar 7.4 18:59:58 10° NW 19:04:28 22° W 19:08:57 10° SW visible
21 Mar 7.6 04:57:42 10° ESE 05:00:53 15° E 05:04:05 10° NE visible
21 Mar 7.9 19:18:33 10° NW 19:21:16 13° W 19:24:00 10° WSW visible
22 Mar 7.1 05:13:00 10° SE 05:17:42 24° E 05:22:26 10° NE visible
23 Mar 6.2 05:29:04 10° SSE 05:34:37 37° E 05:40:12 10° NNE visible
25 Mar 7.6 04:22:29 10° ESE 04:24:52 12° E 04:27:14 10° NE visible
